Location: Churchill Northern Studies Centre
(58.7378°N, 93.8201°W)
Time: 13:27:53
(UTC-05:00)

N. Korean satellite - Pass Details

Date: 11 October 2017
Orbit: 459 x 517 km, 97.2° (Epoch: 18 October)

Event Time Altitude Azimuth Distance (km) Brightness Sun altitude
Rises 19:37:53 0° 186° (S) 2,549 10.3 -11.0°
Reaches altitude 10° 19:40:06 10° 196° (SSW) 1,663 9.4 -11.3°
Maximum altitude 19:43:23 34° 263° (W) 808 8.4 -11.7°
Drops below altitude 10° 19:46:39 10° 330° (NNW) 1,649 9.8 -12.1°
Sets 19:48:50 0° 340° (NNW) 2,523 10.6 -12.4°
